Powrót do katalogu

STARLINK-32226

AktywnyŁącznośćVLEO
NORAD 60426·PAYLOAD·🇺🇸 United States

Wystrzelony Aug 12, 2024 z Cape Canaveral Space Force Station

Loading…

Następne Przeloty (najbliższe 24 godziny)

TLE

ŚwieżeSource: CelesTrak SupGP

Epoka: Sep 14, 2026, 20:41 UTC

1 60426C 24144B   26257.86229167  .00029707  00000+0  87800-3 0  2573
2 60426  53.1590  55.8139 0001232  79.7499 130.4815 15.34364762    11

Śledź STARLINK-32226 w czasie rzeczywistym z AllMySat

Download on the App Store